THY1YM LTFM-LTDB

Flight info

Callsign THY1YM
Flight time 1h 10m
Altitude 35000
Route VICEN1E/36 VICEN DCT VEVUD UT341 BAG UW75 AZBUL UL601 URGUP UW75 KEMER
Aircraft B738/M-SDFGHRWY/LB1

Departure

Time 2026-05-06 21:13
Airport İstanbul Airport (LTFM)

Arrival

Time 2026-05-06 22:23
Airport Çukurova International Airport (LTDB)
Time Latitude Longitude Altitude Speed Heading
2026-05-06 20:53 41.25487 28.74895 295 ft 0 kts 269°
2026-05-06 21:04 41.25488 28.74898 295 ft 2 kts 269°
2026-05-06 21:04 41.25488 28.74918 295 ft 2 kts 268°
2026-05-06 21:05 41.25485 28.74937 295 ft 2 kts 304°
2026-05-06 21:05 41.25474 28.74951 295 ft 2 kts 333°
2026-05-06 21:05 41.25459 28.74956 295 ft 2 kts 360°
2026-05-06 21:05 41.25449 28.74956 295 ft 0 kts 359°
2026-05-06 21:09 41.25473 28.74956 295 ft 7 kts 359°
2026-05-06 21:09 41.25554 28.74954 295 ft 15 kts 359°
2026-05-06 21:09 41.25630 28.74989 296 ft 11 kts 76°
2026-05-06 21:10 41.25633 28.75089 296 ft 10 kts 90°
2026-05-06 21:10 41.25634 28.75200 296 ft 13 kts 90°
2026-05-06 21:10 41.25634 28.75315 300 ft 12 kts 90°
2026-05-06 21:10 41.25669 28.75392 305 ft 11 kts 14°
2026-05-06 21:11 41.25785 28.75393 306 ft 22 kts
2026-05-06 21:11 41.25974 28.75390 306 ft 32 kts 360°
2026-05-06 21:11 41.26183 28.75389 306 ft 18 kts
2026-05-06 21:11 41.26234 28.75501 312 ft 13 kts 89°
2026-05-06 21:12 41.26236 28.75624 317 ft 13 kts 74°
2026-05-06 21:12 41.26333 28.75669 317 ft 33 kts
2026-05-06 21:12 41.26817 28.75659 302 ft 104 kts 359°
2026-05-06 21:12 41.27745 28.75640 268 ft 161 kts
2026-05-06 21:13 41.28912 28.75605 833 ft 165 kts
2026-05-06 21:13 41.30059 28.75777 1297 ft 176 kts 26°
2026-05-06 21:13 41.30957 28.76853 1856 ft 177 kts 52°
2026-05-06 21:13 41.31849 28.77979 2413 ft 181 kts 30°
2026-05-06 21:14 41.32964 28.78723 3051 ft 178 kts 22°
2026-05-06 21:14 41.34065 28.79400 3627 ft 181 kts 23°
2026-05-06 21:14 41.35230 28.80223 3977 ft 197 kts 27°
2026-05-06 21:14 41.36460 28.81143 4330 ft 213 kts 27°
2026-05-06 21:15 41.37706 28.82375 4688 ft 233 kts 46°
2026-05-06 21:15 41.38423 28.84369 5122 ft 254 kts 77°
2026-05-06 21:15 41.38527 28.86810 5536 ft 273 kts 88°
2026-05-06 21:15 41.38155 28.89351 6085 ft 287 kts 110°
2026-05-06 21:16 41.37115 28.91620 6817 ft 293 kts 128°
2026-05-06 21:16 41.35667 28.93499 7540 ft 297 kts 142°
2026-05-06 21:16 41.33796 28.94678 8264 ft 301 kts 168°
2026-05-06 21:16 41.31712 28.94900 8999 ft 303 kts 180°
2026-05-06 21:17 41.29585 28.94887 9710 ft 308 kts 181°
2026-05-06 21:17 41.27460 28.94875 10399 ft 314 kts 180°
2026-05-06 21:17 41.25207 28.94879 10811 ft 330 kts 181°
2026-05-06 21:17 41.22843 28.94772 11241 ft 346 kts 184°
2026-05-06 21:18 41.20422 28.94545 11662 ft 361 kts 185°
2026-05-06 21:18 41.17859 28.94264 12070 ft 376 kts 186°
2026-05-06 21:18 41.15220 28.93978 12781 ft 382 kts 186°
2026-05-06 21:18 41.12574 28.93705 13564 ft 385 kts 186°
2026-05-06 21:19 41.09883 28.93440 14297 ft 390 kts 185°
2026-05-06 21:19 41.07202 28.93188 15068 ft 394 kts 184°
2026-05-06 21:19 41.04446 28.93212 15832 ft 398 kts 175°
2026-05-06 21:19 41.01739 28.94102 16539 ft 402 kts 156°
2026-05-06 21:20 40.99392 28.96027 17313 ft 402 kts 139°
2026-05-06 21:20 40.98005 28.97690 17771 ft 404 kts 134°
2026-05-06 21:20 40.95338 29.01162 18683 ft 409 kts 133°
2026-05-06 21:20 40.93321 29.03839 19313 ft 414 kts 133°
2026-05-06 21:21 40.91290 29.06522 19988 ft 417 kts 133°
2026-05-06 21:21 40.89207 29.09253 20568 ft 423 kts 133°
2026-05-06 21:21 40.87168 29.12004 21191 ft 425 kts 129°
2026-05-06 21:21 40.85337 29.15095 21768 ft 427 kts 120°
2026-05-06 21:22 40.83947 29.18482 22380 ft 425 kts 110°
2026-05-06 21:22 40.82931 29.22155 22914 ft 427 kts 104°
2026-05-06 21:22 40.82108 29.25936 23457 ft 429 kts 101°
2026-05-06 21:22 40.81379 29.29710 23970 ft 432 kts 100°
2026-05-06 21:23 40.80661 29.33579 24447 ft 437 kts 100°
2026-05-06 21:23 40.79935 29.37486 24922 ft 441 kts 99°
2026-05-06 21:23 40.79190 29.41432 25416 ft 445 kts 99°
2026-05-06 21:23 40.78428 29.45401 25901 ft 449 kts 100°
2026-05-06 21:24 40.77649 29.49394 26407 ft 452 kts 100°
2026-05-06 21:24 40.76860 29.53392 26842 ft 456 kts 100°
2026-05-06 21:24 40.76060 29.57417 27288 ft 460 kts 100°
2026-05-06 21:24 40.75242 29.61501 27737 ft 463 kts 100°
2026-05-06 21:25 40.74432 29.65651 28167 ft 466 kts 99°
2026-05-06 21:25 40.73774 29.69810 28557 ft 467 kts 95°
2026-05-06 21:25 40.73371 29.74041 28982 ft 468 kts 91°
2026-05-06 21:25 40.73163 29.78294 29487 ft 467 kts 88°
2026-05-06 21:26 40.73056 29.82530 30157 ft 462 kts 86°
2026-05-06 21:26 40.72995 29.86768 30532 ft 465 kts 86°
2026-05-06 21:26 40.72950 29.91001 31091 ft 463 kts 86°
2026-05-06 21:26 40.72908 29.95200 31542 ft 463 kts 86°
2026-05-06 21:27 40.72855 29.99474 31980 ft 463 kts 87°
2026-05-06 21:27 40.72635 30.03764 32437 ft 466 kts 92°
2026-05-06 21:27 40.72102 30.07967 32833 ft 470 kts 97°
2026-05-06 21:27 40.71297 30.12143 33284 ft 470 kts 101°
2026-05-06 21:28 40.70325 30.16309 33604 ft 474 kts 103°
2026-05-06 21:28 40.69284 30.20373 33956 ft 475 kts 105°
2026-05-06 21:28 40.68174 30.24514 34342 ft 474 kts 105°
2026-05-06 21:28 40.67068 30.28573 34693 ft 473 kts 105°
2026-05-06 21:29 40.65945 30.32618 35027 ft 472 kts 106°
2026-05-06 21:29 40.63509 30.40688 35083 ft 475 kts 108°
2026-05-06 21:30 40.60993 30.48673 35093 ft 472 kts 108°
2026-05-06 21:30 40.58490 30.56651 35094 ft 473 kts 108°
2026-05-06 21:31 40.56010 30.64615 35094 ft 471 kts 108°
2026-05-06 21:31 40.53540 30.72579 35094 ft 472 kts 109°
2026-05-06 21:32 40.51071 30.80542 35091 ft 471 kts 109°
2026-05-06 21:32 40.47346 30.92539 35091 ft 472 kts 109°
2026-05-06 21:33 40.44878 31.00463 35092 ft 471 kts 109°
2026-05-06 21:33 40.42387 31.08439 35092 ft 472 kts 109°
2026-05-06 21:34 40.39890 31.16410 35092 ft 472 kts 109°
2026-05-06 21:34 40.37717 31.24464 35092 ft 468 kts 102°
2026-05-06 21:35 40.36215 31.32697 35084 ft 466 kts 98°
2026-05-06 21:35 40.34915 31.40970 35085 ft 466 kts 97°
2026-05-06 21:36 40.33621 31.49259 35085 ft 465 kts 97°
2026-05-06 21:36 40.32289 31.57585 35081 ft 466 kts 98°
2026-05-06 21:37 40.30937 31.65869 35079 ft 466 kts 98°
2026-05-06 21:37 40.29577 31.74107 35076 ft 466 kts 99°
2026-05-06 21:38 40.28195 31.82409 35077 ft 467 kts 99°
2026-05-06 21:38 40.26811 31.90675 35077 ft 465 kts 99°
2026-05-06 21:39 40.25265 31.98850 35086 ft 467 kts 102°
2026-05-06 21:39 40.23460 32.07032 35075 ft 468 kts 103°
2026-05-06 21:40 40.21627 32.15153 35082 ft 468 kts 103°
2026-05-06 21:40 40.19798 32.23325 35092 ft 468 kts 103°
2026-05-06 21:41 40.17990 32.31473 35088 ft 468 kts 102°
2026-05-06 21:41 40.16193 32.39601 35092 ft 468 kts 102°
2026-05-06 21:42 40.14389 32.47762 35097 ft 468 kts 102°
2026-05-06 21:42 40.12584 32.55905 35097 ft 468 kts 102°
2026-05-06 21:43 40.10781 32.64009 35099 ft 467 kts 102°
2026-05-06 21:43 40.08950 32.72145 35100 ft 470 kts 105°
2026-05-06 21:44 40.06193 32.79876 35099 ft 475 kts 125°
2026-05-06 21:44 40.03959 32.83060 35096 ft 478 kts 138°
2026-05-06 21:44 40.01325 32.85686 35094 ft 478 kts 145°
2026-05-06 21:45 39.95750 32.90415 35094 ft 478 kts 148°
2026-05-06 21:45 39.90113 32.94957 35094 ft 478 kts 148°
2026-05-06 21:46 39.84477 32.99485 35110 ft 478 kts 148°
2026-05-06 21:46 39.78852 33.04028 35110 ft 478 kts 148°
2026-05-06 21:47 39.73212 33.08599 35106 ft 478 kts 148°
2026-05-06 21:47 39.67592 33.13159 35104 ft 477 kts 148°
2026-05-06 21:48 39.61967 33.17718 35103 ft 478 kts 148°
2026-05-06 21:48 39.56365 33.22252 35103 ft 477 kts 148°
2026-05-06 21:49 39.50731 33.26802 35107 ft 476 kts 148°
2026-05-06 21:49 39.45106 33.31336 35101 ft 477 kts 148°
2026-05-06 21:50 39.39408 33.35666 35103 ft 476 kts 152°
2026-05-06 21:50 39.33603 33.39790 35102 ft 476 kts 150°
2026-05-06 21:51 39.27923 33.44161 35106 ft 476 kts 149°
2026-05-06 21:51 39.22295 33.48595 35098 ft 476 kts 149°
2026-05-06 21:52 39.16653 33.53040 35107 ft 476 kts 149°
2026-05-06 21:52 39.11023 33.57455 35094 ft 475 kts 149°
2026-05-06 21:53 39.05364 33.61872 35095 ft 476 kts 149°
2026-05-06 21:53 38.99735 33.66253 35101 ft 475 kts 150°
2026-05-06 21:54 38.94091 33.70634 35097 ft 474 kts 150°
2026-05-06 21:54 38.88458 33.74999 35104 ft 475 kts 150°
2026-05-06 21:55 38.82818 33.79361 35098 ft 473 kts 150°
2026-05-06 21:55 38.77175 33.83715 35103 ft 474 kts 150°
2026-05-06 21:56 38.71529 33.88065 35101 ft 473 kts 150°
2026-05-06 21:56 38.65906 33.92388 35100 ft 473 kts 150°
2026-05-06 21:57 38.60273 33.96712 35102 ft 473 kts 150°
2026-05-06 21:57 38.54623 34.01041 35105 ft 471 kts 150°
2026-05-06 21:58 38.49003 34.05336 35108 ft 471 kts 150°
2026-05-06 21:58 38.43388 34.09609 35109 ft 470 kts 150°
2026-05-06 21:59 38.37758 34.13880 35110 ft 471 kts 150°
2026-05-06 21:59 38.32179 34.18106 35012 ft 467 kts 151°
2026-05-06 22:00 38.29379 34.20226 34663 ft 463 kts 151°
2026-05-06 22:00 38.26628 34.22306 34152 ft 464 kts 150°
2026-05-06 22:00 38.23854 34.24401 33431 ft 467 kts 151°
2026-05-06 22:00 38.21046 34.26519 32827 ft 467 kts 151°
2026-05-06 22:01 38.18345 34.28555 32291 ft 465 kts 151°
2026-05-06 22:01 38.15563 34.30652 31732 ft 463 kts 151°
2026-05-06 22:01 38.12809 34.32726 31165 ft 461 kts 151°
2026-05-06 22:01 38.10029 34.34817 30587 ft 459 kts 151°
2026-05-06 22:02 38.07300 34.36869 29987 ft 457 kts 151°
2026-05-06 22:02 38.04597 34.38898 29407 ft 454 kts 151°
2026-05-06 22:02 38.01892 34.40929 28836 ft 450 kts 151°
2026-05-06 22:02 37.99194 34.42951 28262 ft 447 kts 151°
2026-05-06 22:03 37.96538 34.44941 27702 ft 443 kts 151°
2026-05-06 22:03 37.93932 34.46891 27158 ft 439 kts 151°
2026-05-06 22:03 37.91317 34.48847 26605 ft 435 kts 151°
2026-05-06 22:03 37.88721 34.50790 26057 ft 431 kts 151°
2026-05-06 22:04 37.86136 34.52745 25517 ft 428 kts 151°
2026-05-06 22:04 37.83599 34.54678 24981 ft 424 kts 150°
2026-05-06 22:04 37.81108 34.56582 24447 ft 420 kts 150°
2026-05-06 22:04 37.78626 34.58477 23915 ft 416 kts 150°
2026-05-06 22:05 37.76156 34.60362 23385 ft 412 kts 150°
2026-05-06 22:05 37.73694 34.62237 22858 ft 408 kts 150°
2026-05-06 22:05 37.71287 34.64068 22339 ft 405 kts 150°
2026-05-06 22:05 37.68877 34.65898 21811 ft 401 kts 151°
2026-05-06 22:06 37.66490 34.67709 21292 ft 398 kts 151°
2026-05-06 22:06 37.64142 34.69488 20779 ft 394 kts 151°
2026-05-06 22:06 37.61780 34.71211 20270 ft 390 kts 153°
2026-05-06 22:06 37.59356 34.72685 19763 ft 385 kts 160°
2026-05-06 22:07 37.56837 34.73770 19256 ft 380 kts 166°
2026-05-06 22:07 37.54288 34.74617 18754 ft 375 kts 169°
2026-05-06 22:07 37.51761 34.75353 18259 ft 372 kts 170°
2026-05-06 22:07 37.49236 34.76063 17767 ft 368 kts 169°
2026-05-06 22:08 37.46777 34.76765 17280 ft 365 kts 169°
2026-05-06 22:08 37.44315 34.77488 16794 ft 362 kts 169°
2026-05-06 22:08 37.41869 34.78224 16308 ft 359 kts 168°
2026-05-06 22:08 37.39432 34.78968 15816 ft 356 kts 168°
2026-05-06 22:09 37.37067 34.79696 15345 ft 353 kts 167°
2026-05-06 22:09 37.34665 34.80438 14864 ft 350 kts 167°
2026-05-06 22:09 37.32322 34.81161 14377 ft 347 kts 167°
2026-05-06 22:09 37.30005 34.81876 13921 ft 343 kts 167°
2026-05-06 22:10 37.27702 34.82585 13455 ft 340 kts 167°
2026-05-06 22:10 37.25390 34.83297 12972 ft 338 kts 167°
2026-05-06 22:10 37.23118 34.83995 12505 ft 335 kts 166°
2026-05-06 22:10 37.20862 34.84687 12061 ft 332 kts 166°
2026-05-06 22:11 37.18620 34.85376 11590 ft 330 kts 166°
2026-05-06 22:11 37.16421 34.86051 11131 ft 327 kts 166°
2026-05-06 22:11 37.14210 34.86730 10622 ft 327 kts 166°
2026-05-06 22:11 37.11987 34.87412 10221 ft 323 kts 166°
2026-05-06 22:12 37.09842 34.88069 10080 ft 309 kts 165°
2026-05-06 22:12 37.07788 34.88697 9886 ft 301 kts 165°
2026-05-06 22:12 37.05770 34.89314 9475 ft 301 kts 165°
2026-05-06 22:12 37.03737 34.89938 9076 ft 299 kts 165°
2026-05-06 22:13 37.01738 34.90550 8692 ft 297 kts 165°
2026-05-06 22:13 36.99745 34.91159 8339 ft 293 kts 165°
2026-05-06 22:13 36.97768 34.91763 8044 ft 288 kts 165°
2026-05-06 22:13 36.95839 34.92352 7789 ft 282 kts 165°
2026-05-06 22:14 36.93918 34.92770 7494 ft 278 kts 175°
2026-05-06 22:14 36.92004 34.92427 7191 ft 275 kts 202°
2026-05-06 22:14 36.90356 34.91295 6880 ft 272 kts 213°
2026-05-06 22:14 36.88787 34.89972 6529 ft 271 kts 214°
2026-05-06 22:15 36.87210 34.88663 6174 ft 270 kts 213°
2026-05-06 22:15 36.85634 34.87416 5817 ft 264 kts 212°
2026-05-06 22:15 36.84095 34.86236 5469 ft 259 kts 211°
2026-05-06 22:15 36.82574 34.85081 5102 ft 254 kts 211°
2026-05-06 22:16 36.81082 34.83953 4813 ft 247 kts 211°
2026-05-06 22:16 36.79629 34.82875 4572 ft 241 kts 208°
2026-05-06 22:16 36.78081 34.82143 4306 ft 237 kts 187°
2026-05-06 22:16 36.76482 34.82443 4057 ft 231 kts 152°
2026-05-06 22:17 36.75258 34.83679 3806 ft 226 kts 128°
2026-05-06 22:17 36.74375 34.85294 3548 ft 223 kts 120°
2026-05-06 22:17 36.73585 34.86924 3398 ft 217 kts 119°
2026-05-06 22:17 36.72816 34.88513 3269 ft 210 kts 120°
2026-05-06 22:18 36.72086 34.90052 3152 ft 207 kts 116°
2026-05-06 22:18 36.71688 34.91725 3044 ft 200 kts 90°
2026-05-06 22:18 36.72052 34.93386 2924 ft 199 kts 60°
2026-05-06 22:18 36.72922 34.94714 2801 ft 199 kts 39°
2026-05-06 22:19 36.74070 34.95656 2702 ft 200 kts 32°
2026-05-06 22:19 36.75239 34.96569 2548 ft 192 kts 33°
2026-05-06 22:19 36.76361 34.97439 2396 ft 189 kts 32°
2026-05-06 22:19 36.77486 34.98294 2279 ft 188 kts 32°
2026-05-06 22:20 36.78577 34.99121 2156 ft 182 kts 32°
2026-05-06 22:20 36.79636 34.99925 1950 ft 180 kts 32°
2026-05-06 22:20 36.80688 35.00721 1700 ft 169 kts 32°
2026-05-06 22:20 36.81659 35.01454 1458 ft 156 kts 32°
2026-05-06 22:21 36.82558 35.02135 1259 ft 149 kts 32°
2026-05-06 22:21 36.83441 35.02807 1089 ft 148 kts 32°
2026-05-06 22:21 36.84332 35.03455 867 ft 149 kts 31°
2026-05-06 22:21 36.85215 35.04118 697 ft 146 kts 33°
2026-05-06 22:22 36.86066 35.04782 500 ft 145 kts 31°
2026-05-06 22:22 36.86930 35.05429 271 ft 145 kts 32°
2026-05-06 22:22 36.87780 35.06079 81 ft 143 kts 32°
2026-05-06 22:22 36.88571 35.06684 25 ft 108 kts 32°
2026-05-06 22:23 36.89055 35.07055 28 ft 66 kts 31°
2026-05-06 22:23 36.89430 35.07340 28 ft 60 kts 31°
2026-05-06 22:23 36.89703 35.07536 29 ft 36 kts 20°
2026-05-06 22:23 36.89928 35.07576 30 ft 29 kts
2026-05-06 22:24 36.90088 35.07579 30 ft 17 kts 351°
2026-05-06 22:24 36.90151 35.07510 30 ft 11 kts 300°
2026-05-06 22:24 36.90190 35.07430 30 ft 10 kts 302°
2026-05-06 22:24 36.90227 35.07355 30 ft 9 kts 302°
2026-05-06 22:25 36.90263 35.07285 30 ft 9 kts 302°
2026-05-06 22:25 36.90290 35.07227 31 ft 6 kts 294°
2026-05-06 22:25 36.90278 35.07182 30 ft 5 kts 215°
2026-05-06 22:25 36.90244 35.07155 30 ft 5 kts 212°
2026-05-06 22:26 36.90205 35.07126 30 ft 7 kts 211°
2026-05-06 22:26 36.90178 35.07095 30 ft 4 kts 249°
2026-05-06 22:26 36.90183 35.07061 30 ft 3 kts 297°
2026-05-06 22:26 36.90190 35.07042 30 ft 0 kts 300°